KJ6HT Weather Reports


Display with metric or nautical units.
time (UTC)temp
F
wind
direction
speed
MPH
gust
MPH
rain 1hr
in
rain 24hr
in
rain mn
in
humidity
%
barometer
mb
20260831061514 74 280 1.0 2.0 0.00 0.00 0.00 75 1010.3
20260831060110 74 280 1.0 4.0 0.00 0.00 0.00 76 1010.3
20260831054508 74 296 2.0 6.0 0.00 0.00 0.00 75 1010.1
20260831053119 74 303 2.0 5.0 0.00 0.00 0.00 74 1010.2
20260831051541 76 123 0.0 2.0 0.00 0.00 0.00 70 1010.3
20260831050115 75 294 0.0 2.0 0.00 0.00 0.00 73 1010.2
20260831044531 76 345 0.0 1.0 0.00 0.00 0.00 70 1010.2
20260831043129 76 248 0.0 7.0 0.00 0.00 0.00 69 1009.9
20260831041549 76 170 2.0 7.0 0.00 0.00 0.00 69 1009.6
20260831040023 77 296 4.0 10.0 0.00 0.00 0.00 69 1009.4
20260831034613 78 245 2.0 6.0 0.00 0.00 0.00 68 1009.1
20260831033057 78 288 1.0 7.0 0.00 0.00 0.00 66 1008.8
20260831031501 79 314 2.0 7.0 0.00 0.00 0.00 65 1008.5
20260831030107 80 156 1.0 8.0 0.00 0.00 0.00 65 1008.1
20260831024536 80 280 3.0 10.0 0.00 0.00 0.00 64 1008.0
20260831023003 81 302 6.0 14.0 0.00 0.00 0.00 61 1007.9
20260831021551 83 261 5.0 10.0 0.00 0.00 0.00 58 1007.7
20260831020014 84 233 4.0 14.0 0.00 0.00 0.00 55 1007.6
20260831014623 85 321 4.0 9.0 0.00 0.00 0.00 53 1007.7
20260831013008 86 281 4.0 12.0 0.00 0.00 0.00 51 1007.7
20260831011603 87 340 5.0 12.0 0.00 0.00 0.00 50 1007.6
20260831010058 89 276 5.0 12.0 0.00 0.00 0.00 47 1007.5
20260831004515 90 280 5.0 11.0 0.00 0.00 0.00 46 1007.7
20260831003118 90 256 5.0 15.0 0.00 0.00 0.00 46 1007.5
20260831001531 91 277 5.0 14.0 0.00 0.00 0.00 45 1007.5
20260831000016 91 250 6.0 14.0 0.00 0.00 0.00 46 1007.4
20260830234613 91 303 6.0 16.0 0.00 0.00 0.00 47 1007.5
20260830233021 92 229 8.0 18.0 0.00 0.00 0.00 45 1007.4
20260830231614 92 238 4.0 17.0 0.00 0.00 0.00 46 1007.3
20260830230021 92 285 5.0 13.0 0.00 0.00 0.00 46 1007.5
20260830224614 92 280 5.0 12.0 0.00 0.00 0.00 47 1007.7
20260830223051 93 303 7.0 16.0 0.00 0.00 0.00 48 1007.8
20260830221518 93 118 7.0 18.0 0.00 0.00 0.00 48 1008.0
20260830220055 94 249 7.0 17.0 0.00 0.00 0.00 48 1008.1
20260830214523 94 242 6.0 15.0 0.00 0.00 0.00 46 1008.3
20260830213119 95 231 4.0 13.0 0.00 0.00 0.00 45 1008.4
20260830211547 95 195 7.0 13.0 0.00 0.00 0.00 43 1008.6
20260830210012 95 284 5.0 14.0 0.00 0.00 0.00 41 1008.6
20260830204605 95 351 5.0 12.0 0.00 0.00 0.00 42 1008.7
20260830203023 95 308 4.0 13.0 0.00 0.00 0.00 41 1008.9
20260830201620 95 198 4.0 10.0 0.00 0.00 0.00 41 1008.9
20260830200019 95 233 3.0 11.0 0.00 0.00 0.00 42 1008.9
20260830194625 94 298 5.0 11.0 0.00 0.00 0.00 41 1009.2
20260830193023 96 252 3.0 7.0 0.00 0.00 0.00 36 1009.4
20260830191610 94 222 2.0 7.0 0.00 0.00 0.00 38 1009.5
20260830184517 91 308 2.0 9.0 0.00 0.00 0.00 43 1009.9
20260830183106 91 309 3.0 10.0 0.00 0.00 0.00 44 1010.0
20260830181521 90 238 1.0 5.0 0.00 0.00 0.00 47 1010.0
20260830180104 90 160 0.0 5.0 0.00 0.00 0.00 47 1010.0
20260830174529 89 338 1.0 4.0 0.00 0.00 0.00 48 1010.1
20260830173004 88 301 3.0 6.0 0.00 0.00 0.00 48 1010.1
20260830171606 87 208 1.0 2.0 0.00 0.00 0.00 49 1010.1
20260830170019 85 136 1.0 3.0 0.00 0.00 0.00 52 1010.1
20260830164605 85 41 1.0 3.0 0.00 0.00 0.00 54 1010.1
20260830163006 84 80 0.0 2.0 0.00 0.00 0.00 56 1010.1
20260830161608 83 307 0.0 1.0 0.00 0.00 0.00 60 1010.1
20260830160052 83 120 0.0 2.0 0.00 0.00 0.00 62 1010.2
20260830154625 82 12 0.0 1.0 0.00 0.00 0.00 64 1010.3
20260830153054 80 245 0.0 1.0 0.00 0.00 0.00 69 1010.4
20260830151516 77 6 0.0 2.0 0.00 0.00 0.00 73 1010.3
20260830144605 79 56 0.0 1.0 0.00 0.00 0.00 71 1010.4
20260830143020 76 57 0.0 0.0 0.00 0.00 0.00 77 1010.3
20260830141612 74 56 0.0 0.0 0.00 0.00 0.00 82 1010.2
20260830140012 71 56 0.0 0.0 0.00 0.00 0.00 84 1010.3
20260830134610 71 56 0.0 0.0 0.00 0.00 0.00 85 1010.1
20260830133022 71 57 0.0 0.0 0.00 0.00 0.00 84 1010.0
20260830131604 72 56 0.0 1.0 0.00 0.00 0.00 83 1009.9
20260830130055 73 56 0.0 1.0 0.00 0.00 0.00 79 1009.8
20260830124524 71 64 0.0 1.0 0.00 0.00 0.00 85 1009.6
20260830123111 71 68 0.0 0.0 0.00 0.00 0.00 84 1009.5
20260830121536 72 70 0.0 0.0 0.00 0.00 0.00 81 1009.3
20260830120108 73 69 0.0 0.0 0.00 0.00 0.00 79 1009.2
20260830114531 74 66 0.0 1.0 0.00 0.00 0.00 79 1009.3
20260830113113 72 108 0.0 0.0 0.00 0.00 0.00 81 1009.2
20260830111538 73 108 0.0 0.0 0.00 0.00 0.00 81 1009.3
20260830110105 74 109 0.0 0.0 0.00 0.00 0.00 79 1009.2
20260830104531 75 75 0.0 1.0 0.00 0.00 0.00 78 1009.1
20260830103130 74 292 1.0 4.0 0.00 0.00 0.00 77 1009.1
20260830101553 74 290 0.0 2.0 0.00 0.00 0.00 76 1009.0
20260830100017 76 70 0.0 1.0 0.00 0.00 0.00 72 1008.9
20260830094604 75 245 0.0 0.0 0.00 0.00 0.00 73 1009.0
20260830093016 76 245 0.0 2.0 0.00 0.00 0.00 72 1008.8
20260830091614 77 292 1.0 5.0 0.00 0.00 0.00 70 1008.7
20260830090104 76 301 2.0 5.0 0.00 0.00 0.00 73 1008.7
20260830084531 77 262 2.0 6.0 0.00 0.00 0.00 74 1008.8
20260830083128 78 294 1.0 3.0 0.00 0.00 0.00 70 1008.9
20260830081604 77 302 0.0 2.0 0.00 0.00 0.00 71 1008.8
20260830080033 78 314 0.0 3.0 0.00 0.00 0.00 69 1008.9
20260830074624 77 297 1.0 4.0 0.00 0.00 0.00 69 1008.9
20260830073027 77 295 1.0 4.0 0.00 0.00 0.00 69 1009.0
20260830071618 78 307 1.0 4.0 0.00 0.00 0.00 68 1008.9
20260830070053 78 309 1.0 4.0 0.00 0.00 0.00 68 1008.9
20260830064512 78 302 2.0 4.0 0.00 0.00 0.00 67 1008.8
20260830063110 79 321 2.0 4.0 0.00 0.00 0.00 66 1008.7